Regional Weather Roundup
Issued by NWS Burlington, VT

Home | Current Version | Previous Version | Text Only | Print | Product List | Glossary On
Versions: 1 2 3 4 5 6 7 8 9 10 11 12 13 14 15 16 17 18 19 20 21 22 23 24 25 26 27 28 29 30 31 32 33 34 35 36 37 38 39 40 41 42 43 44 45 46 47 48 49 50
000
ASUS41 KBTV 270730
RWRBTV
VERMONT REGIONAL WEATHER ROUNDUP
NATIONAL WEATHER SERVICE BURLINGTON VT
300 AM EDT MON MAR 27 2017

NOTE: "FAIR" INDICATES FEW OR NO CLOUDS BELOW 12,000 FEET WITH NO
SIGNIFICANT WEATHER AND/OR OBSTRUCTIONS TO VISIBILITY.

* THESE REPORTS ARE NOT UNDER NWS QUALITY CONTROL AND/OR DO NOT
  REPORT WEATHER SUCH AS PRECIPITATION AND FOG.

VTZ001>019-270800-
_____VERMONT_____


CITY           SKY/WX    TMP DP  RH WIND       PRES   REMARKS
BURLINGTON     CLOUDY    37  29  72 S10G22    30.14F WCI  30
MONTPELIER     CLOUDY    31  26  82 S9        30.23F WCI  23
MORRISVILLE    CLOUDY    34  27  75 S5        30.19F WCI  30
ST. JOHNSBURY*   N/A     32  27  81 MISG      30.22F
LYNDONVILLE*   CLOUDY    31  27  86 SE9       30.21F WCI  23
MIDDLEBURY*    DRIZZLE   35  30  82 S5        30.17F WCI  31
RUTLAND*       LGT RAIN  34  28  79 SE18G30   30.18F WCI  23
SPRINGFIELD    CLOUDY    33  26  75 CALM      30.27F
HIGHGATE*      CLOUDY    36  31  83 S8        30.13F WCI  30
NEWPORT*       CLOUDY    32  28  87 S12G20    30.17F WCI  23
BENNINGTON     CLOUDY    40  33  76 E9G21     30.17F
SUTTON*          N/A     28 N/A N/A MISG        N/A
ISLAND POND*     N/A     34 N/A N/A SE1         N/A
GALLUP MILLS*    N/A     30 N/A N/A MISG        N/A
UNION VILLAGE*   N/A     34 N/A N/A MISG        N/A
MT. MANSFIELD*   N/A     32 N/A N/A S31G46      N/A  WCI  17

_____LAKE CHAMPLAIN_____


CITY           SKY/WX    TMP DP  RH WIND       PRES   REMARKS
BURTON ISLAND*   N/A     37  32  81 S24G30      N/A  WCI  26
COLCHESTER RF*   N/A     37  32  81 S29         N/A  WCI  25
DIAMOND ISL*     N/A     36  32  87 S20         N/A  WCI  25

$$

NYZ007-026>031-035-052-083-087-270800-
_____NORTHERN NEW YORK_____


CITY           SKY/WX    TMP DP  RH WIND       PRES   REMARKS
PLATTSBURGH    CLOUDY    36  30  79 SE12      30.11F WCI  28
SARANAC LAKE   CLOUDY    35  35 100 SW3       30.01F
MASSENA        CLOUDY    34  31  88 NE7       30.07F WCI  28
POTSDAM*       CLOUDY    34  34 100 E3        30.03F
STARK FALLS*     N/A     37 N/A N/A S10         N/A  WCI  30
WATERTOWN      LGT RAIN  43  41  93 CALM      30.00F
FT DRUM        LGT RAIN  37  34  87 SE15      29.99F WCI  28
ALBANY         CLOUDY    36  30  79 S15       30.20F WCI  27
GLENS FALLS    CLOUDY    33  30  88 CALM      30.20F

$$
NHZ002-005-011-270800-
_____NEW HAMPSHIRE_____


CITY           SKY/WX    TMP DP  RH WIND       PRES   REMARKS
LEBANON        CLOUDY    34  28  79 E5        30.26F WCI  30
KEENE          CLOUDY    34  29  82 S5        30.29F WCI  30
MT WASHINGTON  FOG       30  30 100 SW51G56     N/A  VSB 0   WCI  12
PLYMOUTH       CLOUDY    31  29  92 E3        30.31F
WHITEFIELD     CLOUDY    33  30  88 CALM      30.21F

$$

_____REGIONAL QUEBEC LOCATIONS_____


CITY           SKY/WX    TMP DP  RH WIND       PRES   REMARKS
MONTREAL       CLOUDY    36  30  80 E9        30.11F WCI  29
QUEBEC CITY    LGT SNOW  27  23  86 E16       30.27F VSB 1   WCI  14
SHERBROOKE     CLOUDY    32  30  93 E7        30.18F WCI  26

_____REGIONAL ONTARIO LOCATIONS_____


CITY           SKY/WX    TMP DP  RH WIND       PRES   REMARKS
OTTAWA         CLOUDY    30  30 100 E9        30.03F FOG     WCI  22

______KEY______
VSB  - VISIBILITY IN MILES
WCI  - WIND CHILL INDEX
HX   - HEAT INDEX
$$
NNNN



USA.gov is the U.S. government's official web portal to all federal, state and local government web resources and services.